Regional Weather Roundup
Issued by NWS

Home | Current Version | Previous Version | Graphics & Text | Print | Product List | Glossary On
Versions: 1 2 3 4 5 6 7 8 9 10 11 12 13 14 15 16 17 18 19 20 21 22 23 24 25 26 27 28 29 30 31 32 33 34 35 36 37 38 39 40 41 42 43 44 45 46 47 48 49 50
000
ASUS43 KLMK 190902
RWRKY
KENTUCKY REGIONAL WEATHER ROUNDUP
NATIONAL WEATHER SERVICE LOUISVILLE KY
400 AM EST FRI DEC 19 2014

NOTE "FAIR" INDICATES FEW OR NO CLOUDS BELOW 12,000 FEET
WITH NO SIGNIFICANT WEATHER AND/OR OBSTRUCTIONS TO VISIBILITY.

KYZ001>023-026-027-061>063-070>075-191000-
WESTERN AND SOUTH CENTRAL KENTUCKY

CITY           SKY/WX    TMP DP  RH WIND       PRES   REMARKS
PADUCAH        CLOUDY    34  29  82 NE7       30.27R WCI  28
HENDERSON      CLOUDY    32  25  74 NE3       30.28S
OWENSBORO      CLOUDY    32  27  82 MISG      30.28S
HOPKINSVILLE   CLOUDY    33  29  84 N6        30.24F WCI  28
BOWLING GREEN  CLOUDY    34  26  72 NW3       30.26R
GLASGOW        NOT AVBL
$$

KYZ024-025-028>034-038-045-046-053-191000-
NORTH CENTRAL KENTUCKY

CITY           SKY/WX    TMP DP  RH WIND       PRES   REMARKS
LOUISVILLE/SDF CLOUDY    31  24  75 N6        30.26S WCI  25
LOUISVILLE/LOU CLOUDY    30  23  75 N6        30.27R WCI  24
FORT KNOX      CLOUDY    31  25  80 N3        30.24R
$$

KYZ035>037-039>044-047>052-055>060-089>105-191000-
NORTHEAST KENTUCKY

CITY           SKY/WX    TMP DP  RH WIND       PRES   REMARKS
LEXINGTON      CLOUDY    28  23  81 N5        30.23S WCI  23
COVINGTON      MOCLDY    25  19  78 NW5       30.23S WCI  19
FRANKFORT      CLOUDY    29  22  75 N5        30.23S WCI  24
$$

KYZ054-064>069-076>088-106>120-191000-
SOUTHEAST KENTUCKY

CITY           SKY/WX    TMP DP  RH WIND       PRES   REMARKS
JACKSON        CLOUDY    30  24  78 CALM      30.19S
LONDON         CLOUDY    33  25  72 N3        30.20S
SOMERSET       NOT AVBL
MIDDLESBORO    NOT AVBL
MONTICELLO     CLOUDY    31  28  88 CALM      30.24F
$$




USA.gov is the U.S. government's official web portal to all federal, state and local government web resources and services.